Regional Weather Roundup
Issued by NWS

Home | Current Version | Previous Version | Graphics & Text | Print | Product List | Glossary On
Versions: 1 2 3 4 5 6 7 8 9 10 11 12 13 14 15 16 17 18 19 20 21 22 23 24 25 26 27 28 29 30 31 32 33 34 35 36 37 38 39 40 41 42 43 44 45 46 47 48 49 50
000
ASUS45 KPSR 270310
RWRAZ

ARIZONA HOURLY REGIONAL WEATHER ROUNDUP
NATIONAL WEATHER SERVICE PHOENIX AZ
800 PM MST TUE MAY 26 2015

NOTE: FAIR INDICATES FEW OR NO CLOUDS BELOW 12,000 FEET WITH NO
SIGNIFICANT WEATHER AND/OR OBSTRUCTIONS TO VISIBILITY.

AZZ001>003-036-270400-
NORTHWEST ARIZONA

CITY           SKY/WX    TMP DP  RH WIND       PRES   REMARKS
BULLHEAD CITY  MOCLDY    90  19   7 S12       29.80R
KINGMAN        MOCLDY    73  17  12 SW9       29.97R
$$

AZZ004>008-015-016-018-270400-
NORTH CENTRAL ARIZONA

CITY           SKY/WX    TMP DP  RH WIND       PRES   REMARKS
GRAND CANYON   CLOUDY    63  29  27 SW8       30.14R
WILLIAMS       PTCLDY    59  28  31 SW8       30.22R
PRESCOTT       PTCLDY    67  31  26 SW6       30.07R
FLAGSTAFF      PTCLDY    56  32  40 SW6       30.18R
PAYSON         MOCLDY    66  30  26 CALM      30.10S
PAGE           MOCLDY    72  44  36 CALM      29.97R
$$

AZZ009>014-017-270400-
NORTHEAST ARIZONA

CITY           SKY/WX    TMP DP  RH WIND       PRES   REMARKS
WINSLOW        PTCLDY    70  30  22 SW15      30.04R
SAINT JOHNS    PTCLDY    68  27  21 SW9       30.07R
WINDOW ROCK    PTCLDY    61  34  36 CALM      30.14R
SHOW LOW       PTCLDY    59  32  36 SW7       30.15R
$$

AZZ023-270400-
GREATER PHOENIX AREA

CITY           SKY/WX    TMP DP  RH WIND       PRES   REMARKS
PHOENIX        PTCLDY    90  36  14 NW9       29.81S
BUCKEYE          N/A     84  36  17 W6        29.83R
GLENDALE       MOCLDY    90  37  15 W5        29.83S
LUKE AFB       PTCLDY    86  41  20 NW3       29.81S
DEER VALLEY    PTCLDY    85  30  13 CALM      29.84S
SCOTTSDALE     PTCLDY    87  34  15 NW3       29.86R
MESA-FALCON    MOCLDY    86  36  16 W6        29.83S
MESA-GATEWAY   PTCLDY    84  39  20 NW5       29.85S
CHANDLER       PTCLDY    88  37  16 W6        29.83R
$$

AZZ027-028-270400-
SOUTHWEST MARICOPA COUNTY AND PINAL COUNTY

CITY           SKY/WX    TMP DP  RH WIND       PRES   REMARKS
CASA GRANDE    PTCLDY    84  37  18 N6        29.83R
GILA BEND      MOCLDY    86  32  14 SW10      29.83R
$$

AZZ503-504-507>509-270400-
SOUTHEAST ARIZONA

CITY           SKY/WX    TMP DP  RH WIND       PRES   REMARKS
TUCSON         CLEAR     84  28  13 SW8       29.93R
DAVIS-MONTHAN  CLEAR     84  27  12 W7        29.91R
RYAN FIELD       N/A     86  28  12 SW7       29.91R
NOGALES        CLEAR     74  22  14 S5        30.01R
SIERRA VISTA   CLEAR     72  22  15 W8        30.06R
DOUGLAS        CLEAR     73  22  14 W7        30.01R
SAFFORD        PTCLDY    80  30  16 NW8       29.90R
$$

AZZ020-021-025-026-031-270400-
SOUTHWEST ARIZONA

CITY           SKY/WX    TMP DP  RH WIND       PRES   REMARKS
YUMA           MOCLDY    85  44  23 S7        29.81R
$$

CAZ031-033-041-043-047-048-061-270400-
SOUTHERN CALIFORNIA

CITY           SKY/WX    TMP DP  RH WIND       PRES   REMARKS
DOWNTOWN L.A.  MOCLDY    61  54  77 VRB3      29.98S
L.A. AIRPORT   MOCLDY    59  55  87 W12       29.98S
SAN DIEGO      CLOUDY    63  55  75 NW8       30.01R
BURBANK        PTCLDY    61  52  72 S8        29.96R
ONTARIO        MOCLDY    64  53  67 SW13      29.96R
RIVERSIDE      PTCLDY    65  54  67 W12       29.95R
PALM SPRINGS   MOCLDY    84  50  30 NW16      29.82R
EL CENTRO NAS  MOCLDY    83  47  28 SE13      29.79R
IMPERIAL       PTCLDY    86  44  23 SE12      29.77R
BLYTHE         MOCLDY    87  42  20 S10       29.79R
NEEDLES        MOCLDY    90  15   6 S7        29.81R
$$

NVZ020-UTZ003-270400-
SOUTHERN NEVADA-UTAH

CITY           SKY/WX    TMP DP  RH WIND       PRES   REMARKS
LAS VEGAS      MOCLDY    87  31  13 SW12      29.79R
SALT LAKE CITY MOCLDY    60  50  69 CALM      30.02S
$$

NMZ009-TXZ055-270400-
NEW MEXICO-WEST TEXAS

CITY           SKY/WX    TMP DP  RH WIND       PRES   REMARKS
ALBUQUERQUE    PTCLDY    66  42  41 S21G29    30.09R
EL PASO        MOCLDY    82  24  12 CALM      29.99R
$$


........................KEY........................
SKY/WX - SKY CONDITION/WEATHER
TMP    - TEMPERATURE IN FAHRENHEIT
DP     - DEW POINT IN FAHRENHEIT
RH     - RELATIVE HUMIDITY IN PERCENT
WIND   - DIRECTION AND SPEED IN MILES PER HOUR (MPH)
VRB    - VARIABLE WIND DIRECTION
PRES   - MEAN SEA LEVEL PRESSURE IN INCHES OF MERCURY
         F - FALLING PRESSURE   R - RISING PRESSURE
         S - STEADY PRESSURE
VSB    - VISIBILITY IN MILES
HX     - HEAT INDEX IN FAHRENHEIT
WCI    - WIND CHILL INDEX IN FAHRENHEIT
TC     - TEMPERATURE IN CELSIUS WHICH IS ALSO KNOWN AS
         TEMPERATURE IN CENTIGRADE
AFB    - AIR FORCE BASE
         LUKE AFB IS LUKE AIR FORCE BASE
         DAVIS-MONTHAN IS DAVIS-MONTHAN AIR FORCE BASE
NAS    - NAVAL AIR STATION
         EL CENTRO NAS IS EL CENTRO NAVAL AIR STATION
N/A    - NOT AVAILABLE




USA.gov is the U.S. government's official web portal to all federal, state and local government web resources and services.